[[{"header":{"parameterUnit":"m.s-1","parameterCategory":2,"la1":30.2992,"la2":30.254,"lo1":-89.0895,"lo2":-89.0443,"dy":0.0025,"dx":0.0025,"nx":19,"ny":19,"refTime":"2026-03-07T09:00:00:Z","depth":"0","parameterNumber":2,"parameterNumberName":"U-component_of_CURRENTS"},"data":[0,0,0,0.1503,0.1504,0.153,0.153,0.1547,0.1547,0,0,0,0,0,0,0,0,0,0,0,0.1487,0.1487,0.1503,0.1504,0.153,0.153,0.1547,0.1547,0,0,0,0,0,0,0,0,0,0,0,0.1487,0.1487,0.1487,0.1505,0.153,0.153,0.1546,0.1529,0,0,0,0,0,0,0,0,0,0,0.1505,0.1492,0.1487,0.1487,0.1505,0.153,0.153,0.1528,0.153,0.1533,0,0.1538,0,0.155,0.1548,0.1548,0,0,0,0.1495,0.1491,0.1504,0.1487,0.1505,0.153,0.1516,0.1529,0.1531,0.1535,0.1539,0.154,0.1551,0.1548,0.1549,0.1608,0.1608,0,0,0.1494,0.1485,0.1502,0.1505,0.1514,0.1515,0.1517,0.1531,0.153,0.1539,0.154,0.1551,0.1549,0.1549,0.1607,0.1608,0,0,0,0.1496,0.1484,0.1497,0.1504,0.1515,0.1516,0.1518,0.1529,0.1535,0.1541,0.1551,0.1549,0.1549,0.1607,0.1608,0.1657,0,0,0,0.1495,0.1486,0.1496,0.149,0.1514,0.1525,0.1516,0.1534,0.1536,0.1551,0.1549,0.1549,0.1606,0.1607,0.1654,0.1694,0,0,0,0.1485,0.1485,0.149,0.149,0.1507,0.1525,0.1531,0.1534,0.1543,0.1548,0.1549,0.1606,0.1607,0.1652,0.169,0.1808,0,0,0,0.1472,0.1467,0.149,0.1492,0.1507,0.1536,0.1531,0.1547,0.1553,0.1549,0.1606,0.1608,0.1651,0.1687,0.1803,0.1925,0.1954,0,0,0.1456,0.1465,0.1467,0.1489,0.1516,0.1532,0.1571,0.1575,0.1573,0.1598,0.1599,0.1655,0.1689,0.1807,0.199,0.2018,0,0,0,0.1456,0.146,0.1472,0.1496,0.1525,0.1579,0.1586,0.1607,0.1641,0.1585,0.1665,0.1685,0.1758,0.1822,0.1844,0.1864,0.1613,0.1613,0.1613,0.1416,0.1445,0.1465,0.1511,0.1543,0.1609,0.1658,0.1692,0.1669,0.1702,0.1731,0.1863,0.1929,0.1948,0.1965,0.1729,0.1729,0.1729,0.1729,0.1407,0.1424,0.1478,0.1508,0.1582,0.1626,0.1728,0.1749,0.1859,0.1794,0.1863,0.1877,0.1975,0.1985,0.1733,0.1732,0.1732,0.1731,0.1731,0.1385,0.1401,0.1429,0.1499,0.158,0.1662,0.1796,0.187,0.1917,0.1984,0.2103,0.2103,0.2112,0.2035,0.2036,0.2037,0.2037,0.2038,0.2038,0.1353,0.1386,0.1428,0.1504,0.1558,0.168,0.1858,0.1966,0.2147,0.2195,0.2196,0.2174,0.1958,0.1946,0.2049,0.2047,0.2046,0.2045,0.2044,0.133,0.1357,0.1418,0.1468,0.1606,0.1733,0.1908,0.2211,0.2343,0.2466,0.2479,0.2326,0.2341,0.2323,0.2322,0.2516,0.2516,0.2516,0.2516,0.1321,0.1336,0.1427,0.1506,0.1624,0.1763,0.2001,0.2256,0.2553,0.2675,0.2681,0.2612,0.2592,0.2615,0.2591,0.2592,0.285,0.285,0.285,0.1325,0.1355,0.1412,0.1498,0.1627,0.1786,0.2003,0.2224,0.2647,0.2859,0.269,0.2676,0.2558,0.2525,0.2539,0.2504,0.2495,0,0]},{"header":{"parameterUnit":"m.s-1","parameterCategory":2,"la1":30.2992,"la2":30.254,"lo1":-89.0895,"lo2":-89.0443,"dy":0.0025,"dx":0.0025,"nx":19,"ny":19,"refTime":"2026-03-07T09:00:00:Z","depth":"0","parameterNumber":3,"parameterNumberName":"V-component_of_CURRENTS"},"data":[0,0,0,0.0075,0.0073,-0.001,-0.001,-0.0175,-0.0176,0,0,0,0,0,0,0,0,0,0,0,0.0102,0.0102,0.0075,0.0073,-0.001,-0.0011,-0.0174,-0.0176,0,0,0,0,0,0,0,0,0,0,0,0.0102,0.0102,0.0101,0.0073,-0.001,-0.0011,-0.0174,-0.0101,0,0,0,0,0,0,0,0,0,0,-0.0015,0.0015,0.0102,0.0101,0.0073,-0.001,-0.0011,-0.0097,-0.0105,-0.0148,0,-0.015,0,-0.0161,-0.0187,-0.0187,0,0,0,0.0056,0.0022,0.0013,0.0101,0.0072,-0.0009,0.0023,-0.0101,-0.0111,-0.016,-0.0152,-0.0158,-0.0164,-0.0188,-0.0189,-0.0304,-0.0304,0,0,0.0061,0.0067,0.002,0.0008,0.0062,0.0026,0.0021,-0.0107,-0.0122,-0.0153,-0.0162,-0.0166,-0.0189,-0.019,-0.0304,-0.0304,0,0,0,0.0086,0.007,0.0065,0.0014,0.0007,0.0024,0.0018,-0.0116,-0.0113,-0.0164,-0.0168,-0.019,-0.0192,-0.0304,-0.0304,-0.0242,0,0,0,0.0087,0.0086,0.0068,0.0068,0.001,-0.005,0.0011,-0.0105,-0.0119,-0.0167,-0.019,-0.0193,-0.0304,-0.0304,-0.0244,-0.0187,0,0,0,0.0104,0.0087,0.0085,0.0069,0.0042,-0.0048,-0.0054,-0.0108,-0.0122,-0.0187,-0.0194,-0.0304,-0.0304,-0.0245,-0.0191,-0.0139,0,0,0,0.0102,0.0089,0.0085,0.0065,0.0043,-0.0001,-0.0053,-0.0104,-0.0155,-0.0191,-0.0304,-0.0304,-0.0245,-0.0193,-0.0142,0.004,0.0067,0,0,0.0086,0.0087,0.0076,0.0072,0.0048,0.0008,-0.0036,-0.012,-0.0174,-0.0269,-0.0272,-0.0243,-0.0191,-0.0139,0.0031,0.0059,0,0,0,0.0071,0.007,0.0059,0.0046,0.0015,-0.0005,-0.0084,-0.012,-0.0194,-0.0202,-0.0264,-0.0233,-0.0202,-0.0099,-0.0078,-0.0146,-0.0305,-0.0305,-0.0305,0.0058,0.0056,0.005,0.0045,0.002,-0.0029,-0.0055,-0.0119,-0.0185,-0.0202,-0.0199,-0.0136,-0.0028,-0.001,-0.0083,-0.0234,-0.0234,-0.0234,-0.0233,0.0062,0.0075,0.007,0.0069,0.0056,0.0023,-0.0038,-0.0073,-0.0104,-0.0167,-0.014,-0.0059,0.0019,-0.0069,-0.023,-0.023,-0.0231,-0.0231,-0.0231,0.0075,0.0088,0.0089,0.0113,0.0117,0.0082,0.0124,0.0049,-0.0028,-0.0009,0.0104,0.0105,0.0045,0.0004,0.0005,0.0005,0.0006,0.0006,0.0006,0.0102,0.0107,0.0152,0.0168,0.02,0.0239,0.0224,0.0238,0.0245,0.0209,0.021,0.0071,-0.0063,-0.0052,0.0014,0.0012,0.0012,0.0011,0.001,0.015,0.016,0.0233,0.0276,0.0367,0.0511,0.0477,0.0589,0.0553,0.0604,0.038,0.032,0.0328,0.0311,0.033,0.0491,0.0491,0.0491,0.0491,0.0202,0.0204,0.0335,0.0429,0.0545,0.0641,0.0917,0.099,0.0821,0.0716,0.0533,0.0495,0.0479,0.0488,0.0468,0.0486,0.0683,0.0682,0.0682,0.0268,0.0295,0.041,0.0495,0.0632,0.0836,0.1179,0.1379,0.1034,0.0671,0.0399,0.0391,0.0306,0.0286,0.0272,0.0248,0.0268,0,0]}],[{"header":{"parameterUnit":"m.s-1","parameterCategory":2,"la1":30.2992,"la2":30.254,"lo1":-89.0895,"lo2":-89.0443,"dy":0.0025,"dx":0.0025,"nx":19,"ny":19,"refTime":"2026-03-07T09:00:00:Z","depth":"2","parameterNumber":2,"parameterNumberName":"U-component_of_CURRENTS"},"data":[0,0,0,0.1573,0.1575,0.1622,0.1622,0.1649,0.1649,0,0,0,0,0,0,0,0,0,0,0,0.1557,0.1558,0.1573,0.1575,0.1622,0.1622,0.1649,0.1649,0,0,0,0,0,0,0,0,0,0,0,0.1557,0.1558,0.1558,0.1575,0.1622,0.1622,0.1649,0.162,0,0,0,0,0,0,0,0,0,0,0.1577,0.1578,0.1558,0.1558,0.1575,0.1622,0.1622,0.1619,0.1622,0.162,0,0.1635,0,0.1645,0.1651,0.1651,0,0,0,0.1568,0.1575,0.1582,0.1558,0.1576,0.1622,0.1599,0.1621,0.1624,0.1623,0.1635,0.1637,0.1646,0.1651,0.1651,0.1724,0.1724,0,0,0.1566,0.157,0.158,0.1584,0.1598,0.1597,0.16,0.1623,0.1633,0.1636,0.1638,0.1646,0.1651,0.1651,0.1723,0.1724,0,0,0,0.1562,0.1568,0.1575,0.1583,0.1596,0.1599,0.1602,0.1632,0.1633,0.1638,0.1646,0.1651,0.1651,0.1723,0.1724,0.1768,0,0,0,0.1561,0.1566,0.1573,0.1577,0.1596,0.1622,0.1611,0.1632,0.1635,0.1646,0.1651,0.1652,0.1722,0.1723,0.1765,0.1789,0,0,0,0.1553,0.1566,0.1573,0.1577,0.16,0.1622,0.1624,0.1632,0.164,0.1651,0.1652,0.1721,0.1723,0.1763,0.1785,0.1887,0,0,0,0.1553,0.156,0.1573,0.16,0.1599,0.1642,0.1624,0.1653,0.1665,0.1651,0.1722,0.1723,0.1762,0.1783,0.1883,0.1832,0.1845,0,0,0.1554,0.1561,0.1578,0.1591,0.1637,0.1635,0.1689,0.1692,0.1687,0.1709,0.1711,0.1766,0.1785,0.1886,0.1917,0.1927,0,0,0,0.1574,0.1585,0.1606,0.164,0.1673,0.1711,0.1719,0.1733,0.1763,0.1704,0.1783,0.1795,0.1857,0.1818,0.1827,0.173,0.173,0.173,0.173,0.1563,0.1592,0.1626,0.1668,0.1708,0.1762,0.1802,0.1823,0.1804,0.1832,0.1843,0.1967,0.1924,0.1931,0.1855,0.1855,0.1856,0.1856,0.1856,0.1569,0.1581,0.1639,0.1672,0.1728,0.1775,0.1863,0.1877,0.1969,0.191,0.197,0.1881,0.1943,0.186,0.1859,0.1858,0.1858,0.1858,0.1857,0.1541,0.1547,0.1575,0.1634,0.1701,0.1779,0.1883,0.1954,0.2011,0.207,0.2066,0.2064,0.2011,0.2114,0.2115,0.2115,0.2116,0.2116,0.2117,0.1488,0.1519,0.1536,0.1603,0.1644,0.1741,0.1902,0.1988,0.21,0.2126,0.2126,0.2055,0.2047,0.2028,0.2125,0.2124,0.2123,0.2122,0.2121,0.1451,0.1455,0.1487,0.1516,0.1626,0.1668,0.1837,0.2007,0.2141,0.219,0.2176,0.2172,0.2166,0.2156,0.2141,0.2263,0.2263,0.2263,0.2263,0.1414,0.1423,0.1453,0.1499,0.1566,0.1646,0.1705,0.1851,0.2045,0.2109,0.2115,0.2007,0.2006,0.1984,0.1979,0.1957,0.2031,0.203,0.203,0.1405,0.1417,0.1418,0.1468,0.1535,0.1582,0.1566,0.1626,0.1831,0.2017,0.2035,0.2255,0.2108,0.2101,0.2073,0.2063,0.2031,0,0]},{"header":{"parameterUnit":"m.s-1","parameterCategory":2,"la1":30.2992,"la2":30.254,"lo1":-89.0895,"lo2":-89.0443,"dy":0.0025,"dx":0.0025,"nx":19,"ny":19,"refTime":"2026-03-07T09:00:00:Z","depth":"2","parameterNumber":3,"parameterNumberName":"V-component_of_CURRENTS"},"data":[0,0,0,-0.036,-0.0362,-0.0432,-0.0432,-0.0478,-0.0478,0,0,0,0,0,0,0,0,0,0,0,-0.0326,-0.0326,-0.036,-0.0362,-0.0432,-0.0432,-0.0478,-0.0478,0,0,0,0,0,0,0,0,0,0,0,-0.0326,-0.0326,-0.0327,-0.0362,-0.0432,-0.0433,-0.0478,-0.0436,0,0,0,0,0,0,0,0,0,0,-0.0373,-0.0361,-0.0326,-0.0327,-0.0363,-0.0432,-0.0433,-0.0434,-0.0438,-0.0434,0,-0.0441,0,-0.0465,-0.0481,-0.0481,0,0,0,-0.0361,-0.0357,-0.0365,-0.0327,-0.0363,-0.0432,-0.04,-0.0437,-0.0442,-0.0439,-0.0442,-0.0444,-0.0465,-0.0481,-0.0481,-0.0476,-0.0476,0,0,-0.0357,-0.035,-0.0362,-0.0368,-0.0375,-0.0398,-0.0402,-0.044,-0.0448,-0.0442,-0.0445,-0.0466,-0.0481,-0.0481,-0.0476,-0.0476,0,0,0,-0.0347,-0.0348,-0.0356,-0.0365,-0.0384,-0.04,-0.0405,-0.0446,-0.0446,-0.0446,-0.0467,-0.0481,-0.0482,-0.0477,-0.0476,-0.0401,0,0,0,-0.0344,-0.0342,-0.0354,-0.0353,-0.0384,-0.0426,-0.041,-0.0443,-0.0448,-0.0467,-0.0481,-0.0482,-0.0477,-0.0476,-0.0404,-0.0354,0,0,0,-0.0324,-0.0341,-0.0344,-0.0352,-0.0383,-0.0426,-0.0429,-0.0445,-0.0461,-0.0481,-0.0482,-0.0477,-0.0476,-0.0406,-0.0359,-0.0302,0,0,0,-0.0321,-0.0294,-0.0344,-0.0328,-0.0382,-0.0384,-0.0429,-0.0446,-0.0459,-0.0481,-0.0477,-0.0476,-0.0407,-0.0362,-0.0305,-0.0173,-0.0146,0,0,-0.0273,-0.0289,-0.0278,-0.0323,-0.031,-0.0375,-0.0357,-0.0401,-0.0446,-0.0462,-0.0463,-0.0403,-0.036,-0.0302,-0.0133,-0.0107,0,0,0,-0.0253,-0.0249,-0.0256,-0.0268,-0.0289,-0.0295,-0.035,-0.0373,-0.0399,-0.0453,-0.041,-0.0385,-0.0351,-0.0279,-0.0259,-0.0473,-0.0473,-0.0473,-0.0473,-0.0195,-0.0205,-0.0178,-0.0192,-0.0198,-0.0241,-0.0246,-0.0286,-0.0346,-0.0349,-0.0329,-0.024,-0.0164,-0.0147,-0.0346,-0.0345,-0.0345,-0.0345,-0.0345,-0.0123,-0.0098,-0.0116,-0.0092,-0.0103,-0.01,-0.0139,-0.0183,-0.019,-0.0263,-0.0234,-0.021,-0.012,-0.0339,-0.034,-0.0341,-0.0341,-0.0342,-0.0342,-0.0074,-0.0052,-0.0051,-0.0008,0.0012,-0.0018,0.0046,-0.003,-0.0106,-0.0086,-0.0021,-0.0021,-0.0178,-0.0081,-0.008,-0.008,-0.0079,-0.0079,-0.0078,-0.0016,-0.0003,0.0051,0.0075,0.0113,0.0156,0.0142,0.0171,0.0153,0.0088,0.0089,-0.0151,-0.016,-0.0163,-0.0071,-0.0072,-0.0073,-0.0074,-0.0075,0.0056,0.0066,0.0152,0.0203,0.0298,0.0425,0.04,0.0478,0.0457,0.0484,0.0191,0.0182,0.0176,0.016,0.0165,0.0336,0.0336,0.0336,0.0336,0.0111,0.0121,0.0253,0.0358,0.0493,0.0552,0.0761,0.0748,0.0612,0.0484,0.0477,0.0437,0.0419,0.0421,0.0399,0.0405,0.0639,0.064,0.064,0.0163,0.0198,0.0317,0.0416,0.0572,0.0729,0.0915,0.0915,0.0724,0.0644,0.0448,0.0372,0.0293,0.0272,0.0252,0.0226,0.0226,0,0]}],[{"header":{"parameterUnit":"m.s-1","parameterCategory":2,"la1":30.2992,"la2":30.254,"lo1":-89.0895,"lo2":-89.0443,"dy":0.0025,"dx":0.0025,"nx":19,"ny":19,"refTime":"2026-03-07T09:00:00:Z","depth":"4","parameterNumber":2,"parameterNumberName":"U-component_of_CURRENTS"},"data":[0,0,0,0.0939,0.0941,0.1053,0.1053,0.1142,0.1142,0,0,0,0,0,0,0,0,0,0,0,0.09,0.0901,0.0939,0.0942,0.1053,0.1053,0.1141,0.1142,0,0,0,0,0,0,0,0,0,0,0,0.0899,0.0901,0.0902,0.0942,0.1053,0.1053,0.1141,0.107,0,0,0,0,0,0,0,0,0,0,0.0968,0.0945,0.09,0.0902,0.0943,0.1053,0.1053,0.1067,0.1074,0.1077,0,0.1102,0,0.1126,0.1147,0.1148,0,0,0,0.0937,0.094,0.0967,0.0902,0.0944,0.1053,0.1001,0.1071,0.1079,0.1086,0.1104,0.1108,0.1128,0.1148,0.1148,0.1251,0.1252,0,0,0.0931,0.0921,0.0961,0.0972,0.0983,0.0998,0.1005,0.1077,0.109,0.1104,0.111,0.1129,0.1148,0.1149,0.1251,0.1251,0,0,0,0.0916,0.0917,0.0943,0.0968,0.0994,0.1001,0.1009,0.1087,0.1095,0.1111,0.113,0.1149,0.115,0.125,0.1251,0.1278,0,0,0,0.0912,0.0909,0.0941,0.0936,0.0993,0.1051,0.1018,0.109,0.11,0.113,0.1149,0.115,0.1249,0.125,0.1276,0.1281,0,0,0,0.0893,0.0907,0.0922,0.0935,0.0985,0.105,0.1064,0.1093,0.1111,0.1148,0.1151,0.1249,0.125,0.1274,0.1278,0.1333,0,0,0,0.0874,0.0897,0.0922,0.0955,0.0984,0.1045,0.1063,0.1121,0.1155,0.1149,0.1249,0.1251,0.1274,0.1276,0.133,0.1175,0,0,0,0.0885,0.0898,0.0915,0.094,0.0988,0.1028,0.1094,0.1152,0.1175,0.1219,0.1223,0.1277,0.1278,0.1332,0.1254,0,0,0,0,0.0906,0.0917,0.0937,0.0975,0.1025,0.1089,0.1146,0.1177,0.125,0.1204,0.1296,0.1296,0.133,0.1233,0.1257,0.1257,0.1257,0.1257,0.1257,0.0886,0.0915,0.095,0.0999,0.1047,0.1137,0.1194,0.1252,0.1268,0.1314,0.1333,0.1412,0.1311,0.1354,0.1354,0.1355,0.1355,0.1355,0.1355,0.0883,0.0901,0.0957,0.1003,0.1081,0.1147,0.125,0.1292,0.1389,0.1375,0.1407,0.1286,0.1358,0.1357,0.1357,0.1357,0.1356,0.1356,0.1356,0.0856,0.0871,0.0914,0.0987,0.1072,0.1167,0.1258,0.1343,0.1413,0.1458,0.1385,0.1444,0.1426,0.1493,0.1493,0.1494,0.1494,0.1494,0.1494,0.0809,0.0853,0.0888,0.0971,0.1024,0.112,0.1273,0.1342,0.1436,0.1404,0.1482,0.1459,0.1454,0.1435,0.1499,0.1498,0.1497,0.1497,0.1497,0.0771,0.0796,0.0837,0.0884,0.0984,0.1039,0.12,0.1308,0.138,0.1393,0.1381,0.1385,0.1365,0.1364,0.134,0.1378,0.1376,0.1374,0,0.0738,0.0753,0.0793,0.0832,0.0882,0.0981,0.1052,0.1159,0.1257,0.1211,0.1367,0.1349,0.1352,0.1323,0.1319,0.1286,0,0,0,0.0715,0.0732,0.0739,0.0778,0.082,0.0923,0.1061,0.1075,0.1234,0.1271,0.133,0.1342,0.143,0.1511,0.1492,0.1486,0.1455,0,0]},{"header":{"parameterUnit":"m.s-1","parameterCategory":2,"la1":30.2992,"la2":30.254,"lo1":-89.0895,"lo2":-89.0443,"dy":0.0025,"dx":0.0025,"nx":19,"ny":19,"refTime":"2026-03-07T09:00:00:Z","depth":"4","parameterNumber":3,"parameterNumberName":"V-component_of_CURRENTS"},"data":[0,0,0,-0.0005,-0.0005,-0.0024,-0.0024,-0.0022,-0.0022,0,0,0,0,0,0,0,0,0,0,0,0.0006,0.0006,-0.0005,-0.0005,-0.0024,-0.0024,-0.0023,-0.0022,0,0,0,0,0,0,0,0,0,0,0,0.0006,0.0006,0.0006,-0.0005,-0.0024,-0.0024,-0.0023,-0.0014,0,0,0,0,0,0,0,0,0,0,0.0002,0.0009,0.0006,0.0006,-0.0006,-0.0024,-0.0024,-0.0014,-0.0014,-0.0007,0,-0.001,0,-0.0019,-0.0022,-0.0022,0,0,0,-0.0002,0.001,0.0001,0.0006,-0.0006,-0.0024,-0.0015,-0.0014,-0.0015,-0.0008,-0.0011,-0.0011,-0.0019,-0.0022,-0.0022,0.003,0.0031,0,0,-0.0001,0.0007,0.0001,0.0,-0.001,-0.0014,-0.0016,-0.0015,-0.0013,-0.0011,-0.0011,-0.0019,-0.0022,-0.0022,0.003,0.003,0,0,0,-0.0,0.0008,-0.0002,0.0001,-0.0007,-0.0015,-0.0016,-0.0013,-0.0017,-0.0011,-0.0019,-0.0022,-0.0022,0.0029,0.003,0.008,0,0,0,0.0001,0.0008,-0.0001,0.0004,-0.0007,-0.0013,-0.0014,-0.0017,-0.0017,-0.0019,-0.0022,-0.0022,0.0029,0.003,0.0078,0.0114,0,0,0,0.0007,0.0008,0.0005,0.0004,-0.0007,-0.0014,-0.0018,-0.0017,-0.0022,-0.0022,-0.0022,0.0028,0.0029,0.0075,0.011,0.0123,0,0,0,0.0017,0.0035,0.0006,0.0031,-0.0007,0.0025,-0.0018,-0.0005,0.0,-0.0022,0.0029,0.003,0.0075,0.0107,0.0121,0.0122,0,0,0,0.005,0.0039,0.0058,0.0031,0.0071,0.0027,0.0072,0.0048,0.0022,0.0029,0.003,0.0079,0.0109,0.0123,0.0195,0,0,0,0,0.0076,0.009,0.0098,0.011,0.0114,0.0123,0.0097,0.0086,0.0081,0.0028,0.009,0.0108,0.0114,0.0109,0.0036,0.0036,0.0036,0.0036,0.0035,0.014,0.0141,0.0179,0.0183,0.0201,0.0191,0.0195,0.0175,0.0139,0.0143,0.0157,0.0215,0.0213,0.0157,0.0158,0.0158,0.0158,0.0158,0.0158,0.0201,0.0221,0.0234,0.0267,0.0272,0.0301,0.029,0.0258,0.0258,0.022,0.0222,0.0173,0.0164,0.0163,0.0162,0.0161,0.0161,0.016,0.016,0.0233,0.0242,0.0261,0.0308,0.0354,0.0359,0.0402,0.0373,0.0316,0.0324,0.0294,0.0251,0.0237,0.0313,0.0313,0.0314,0.0314,0.0314,0.0314,0.0248,0.0269,0.0306,0.0355,0.0397,0.0449,0.0466,0.0458,0.0403,0.0368,0.0337,0.0267,0.0262,0.0246,0.0318,0.0317,0.0317,0.0316,0.0316,0.0276,0.0281,0.0339,0.0382,0.048,0.0525,0.0546,0.0513,0.0499,0.0452,0.0379,0.0375,0.0355,0.0348,0.0333,0.0433,0.0434,0.0434,0,0.029,0.0298,0.0374,0.0449,0.0533,0.0575,0.0586,0.0566,0.0486,0.048,0.0478,0.0397,0.0392,0.037,0.0364,0.0349,0,0,0,0.0312,0.0332,0.0388,0.046,0.056,0.0582,0.0591,0.0569,0.0505,0.0481,0.0441,0.0439,0.0383,0.0329,0.0288,0.0282,0.0253,0,0]}]]